DW8500 Weather Reports


Display with metric or nautical units.
time (UTC)temp
F
wind
direction
speed
MPH
gust
MPH
rain 1hr
in
rain 24hr
in
rain mn
in
humidity
%
barometer
mb
20260831210349 78 252 0.0 1.0 0.00 0.00 0.00 45 1015.8
20260831210049 77 232 0.0 1.0 0.00 0.00 0.00 44 1015.3
20260831205847 78 231 0.0 1.0 0.00 0.00 0.00 44 1015.8
20260831205347 78 231 0.0 1.0 0.00 0.00 0.00 43 1015.9
20260831204843 79 103 0.0 1.0 0.00 0.00 0.00 41 1015.9
20260831204543 79 103 0.0 2.0 0.00 0.00 0.00 39 1015.3
20260831204342 80 103 0.0 2.0 0.00 0.00 0.00 38 1015.8
20260831203839 81 335 1.0 2.0 0.00 0.00 0.00 38 1015.8
20260831203359 81 134 0.0 2.0 0.00 0.00 0.00 37 1015.9
20260831203056 80 292 0.0 2.0 0.00 0.00 0.00 41 1015.4
20260831202855 80 292 1.0 3.0 0.00 0.00 0.00 37 1015.8
20260831202335 80 248 1.0 3.0 0.00 0.00 0.00 41 1015.9
20260831201848 80 288 1.0 2.0 0.00 0.00 0.00 38 1015.9
20260831201512 80 172 0.0 2.0 0.00 0.00 0.00 40 1015.3
20260831201353 80 136 1.0 2.0 0.00 0.00 0.00 40 1015.9
20260831200852 80 242 1.0 2.0 0.00 0.00 0.00 40 1016.0
20260831200338 80 247 1.0 3.0 0.00 0.00 0.00 39 1015.9
20260831200036 80 350 0.0 3.0 0.00 0.00 0.00 40 1015.4
20260831195342 79 309 1.0 3.0 0.00 0.00 0.00 41 1015.9
20260831194856 79 90 1.0 3.0 0.00 0.00 0.00 42 1016.0
20260831194615 78 270 0.0 3.0 0.00 0.00 0.00 42 1015.4
20260831194340 79 155 1.0 3.0 0.00 0.00 0.00 43 1016.0
20260831193841 78 330 2.0 5.0 0.00 0.00 0.00 40 1016.0
20260831193342 78 288 1.0 5.0 0.00 0.00 0.00 39 1016.2
20260831193100 78 78 1.0 5.0 0.00 0.00 0.00 40 1015.7
20260831192843 79 255 1.0 5.0 0.00 0.00 0.00 40 1016.2
20260831192344 79 32 2.0 5.0 0.00 0.00 0.00 39 1016.2
20260831191847 79 250 1.0 4.0 0.00 0.00 0.00 41 1016.3
20260831191559 79 234 0.0 4.0 0.00 0.00 0.00 40 1015.8
20260831191348 79 238 1.0 4.0 0.00 0.00 0.00 41 1016.2
20260831190917 79 97 1.0 4.0 0.00 0.00 0.00 42 1016.3
20260831190352 78 342 0.0 3.0 0.00 0.00 0.00 43 1016.4
20260831190051 78 345 0.0 3.0 0.00 0.00 0.00 40 1016.1
20260831185841 79 82 1.0 3.0 0.00 0.00 0.00 40 1016.6
20260831185339 79 279 0.0 3.0 0.00 0.00 0.00 42 1016.5
20260831184837 79 288 1.0 3.0 0.00 0.00 0.00 40 1016.6
20260831184605 78 184 0.0 2.0 0.00 0.00 0.00 40 1016.1
20260831184356 79 13 0.0 2.0 0.00 0.00 0.00 40 1016.5
20260831183848 78 248 0.0 3.0 0.00 0.00 0.00 39 1016.7
20260831183407 78 191 1.0 3.0 0.00 0.00 0.00 40 1016.6
20260831183044 77 30 0.0 2.0 0.00 0.00 0.00 41 1016.2
20260831182843 78 62 1.0 1.0 0.00 0.00 0.00 40 1016.7
20260831182343 78 113 0.0 1.0 0.00 0.00 0.00 40 1016.7
20260831181841 77 194 0.0 2.0 0.00 0.00 0.00 41 1016.7
20260831181546 77 294 0.0 2.0 0.00 0.00 0.00 40 1016.3
20260831181343 77 265 0.0 2.0 0.00 0.00 0.00 40 1016.8
20260831180839 77 114 1.0 3.0 0.00 0.00 0.00 40 1016.8
20260831180340 78 261 1.0 4.0 0.00 0.00 0.00 40 1016.8
20260831180015 77 301 1.0 4.0 0.00 0.00 0.00 38 1016.3
20260831175914 78 240 1.0 2.0 0.00 0.00 0.00 39 1016.8
20260831175352 78 249 0.0 2.0 0.00 0.00 0.00 41 1016.8
20260831174844 77 292 0.0 4.0 0.00 0.00 0.00 39 1016.8
20260831174544 77 129 0.0 4.0 0.00 0.00 0.00 39 1016.4
20260831174343 77 255 1.0 4.0 0.00 0.00 0.00 37 1016.8
20260831173410 78 268 1.0 2.0 0.00 0.00 0.00 39 1016.8
20260831173044 77 138 0.0 2.0 0.00 0.00 0.00 38 1016.3
20260831172844 77 218 1.0 2.0 0.00 0.00 0.00 39 1017.0
20260831172404 78 225 1.0 2.0 0.00 0.00 0.00 36 1017.0
20260831171857 77 274 1.0 3.0 0.00 0.00 0.00 38 1017.1
20260831171541 77 198 0.0 3.0 0.00 0.00 0.00 37 1016.7
20260831171337 77 198 1.0 3.0 0.00 0.00 0.00 39 1017.1
20260831170854 77 73 1.0 2.0 0.00 0.00 0.00 38 1017.2
20260831170347 76 100 0.0 3.0 0.00 0.00 0.00 37 1017.3
20260831170047 76 215 1.0 3.0 0.00 0.00 0.00 38 1016.9
20260831165843 76 98 0.0 3.0 0.00 0.00 0.00 38 1017.3
20260831165343 77 258 0.0 3.0 0.00 0.00 0.00 41 1017.2
20260831164837 77 181 1.0 3.0 0.00 0.00 0.00 38 1017.4
20260831164517 76 292 1.0 4.0 0.00 0.00 0.00 38 1016.9
20260831164416 77 49 1.0 6.0 0.00 0.00 0.00 37 1017.5
20260831163910 76 198 1.0 6.0 0.00 0.00 0.00 39 1017.5
20260831163349 76 266 0.0 2.0 0.00 0.00 0.00 42 1017.5
20260831163046 75 220 0.0 2.0 0.00 0.00 0.00 40 1017.0
20260831162844 76 276 1.0 4.0 0.00 0.00 0.00 41 1017.5
20260831162344 76 261 1.0 4.0 0.00 0.00 0.00 40 1017.5
20260831161839 76 216 1.0 3.0 0.00 0.00 0.00 41 1017.6
20260831161539 76 219 0.0 1.0 0.00 0.00 0.00 41 1017.2
20260831161337 76 221 0.0 1.0 0.00 0.00 0.00 42 1017.7
20260831160913 75 229 0.0 2.0 0.00 0.00 0.00 44 1018.0
20260831160408 74 243 1.0 2.0 0.00 0.00 0.00 42 1017.8
20260831160049 74 330 0.0 2.0 0.00 0.00 0.00 43 1017.4
20260831155844 74 290 1.0 2.0 0.00 0.00 0.00 41 1017.9
20260831155345 74 262 1.0 2.0 0.00 0.00 0.00 42 1017.9
20260831154843 74 255 1.0 2.0 0.00 0.00 0.00 45 1017.8
20260831154504 74 284 0.0 2.0 0.00 0.00 0.00 43 1017.4
20260831154402 74 243 1.0 2.0 0.00 0.00 0.00 43 1017.9
20260831153839 74 131 1.0 2.0 0.00 0.00 0.00 45 1017.8
20260831153340 74 150 1.0 2.0 0.00 0.00 0.00 46 1017.8
20260831153019 73 261 0.0 3.0 0.00 0.00 0.00 45 1017.3
20260831152911 74 260 0.0 3.0 0.00 0.00 0.00 44 1017.7
20260831152349 73 154 2.0 3.0 0.00 0.00 0.00 43 1017.7
20260831151845 73 126 0.0 2.0 0.00 0.00 0.00 45 1017.8
20260831151546 72 307 1.0 2.0 0.00 0.00 0.00 46 1017.4
20260831151344 72 117 0.0 1.0 0.00 0.00 0.00 48 1017.8
20260831150842 72 314 0.0 1.0 0.00 0.00 0.00 48 1018.0
20260831150342 71 227 0.0 2.0 0.00 0.00 0.00 51 1017.9
20260831150041 70 226 0.0 2.0 0.00 0.00 0.00 50 1017.5
20260831145840 71 226 0.0 2.0 0.00 0.00 0.00 50 1018.0
20260831145341 70 98 1.0 2.0 0.00 0.00 0.00 50 1018.0
20260831144855 70 105 1.0 1.0 0.00 0.00 0.00 52 1018.1
20260831144537 69 108 0.0 1.0 0.00 0.00 0.00 52 1017.7
20260831144333 69 103 0.0 2.0 0.00 0.00 0.00 52 1018.1
20260831143847 69 102 0.0 2.0 0.00 0.00 0.00 52 1018.2
20260831143405 69 224 0.0 2.0 0.00 0.00 0.00 53 1018.3
20260831143105 68 262 0.0 2.0 0.00 0.00 0.00 54 1017.8
20260831142842 68 149 0.0 2.0 0.00 0.00 0.00 53 1018.3
20260831142401 68 268 0.0 3.0 0.00 0.00 0.00 52 1018.2
20260831141838 68 197 0.0 3.0 0.00 0.00 0.00 54 1018.3
20260831141553 67 235 0.0 3.0 0.00 0.00 0.00 54 1017.9
20260831141339 68 221 1.0 3.0 0.00 0.00 0.00 55 1018.4
20260831140916 67 100 1.0 3.0 0.00 0.00 0.00 53 1018.4
20260831140354 67 266 0.0 2.0 0.00 0.00 0.00 55 1018.2
20260831140056 66 266 0.0 2.0 0.00 0.00 0.00 56 1017.7
20260831135852 66 266 0.0 2.0 0.00 0.00 0.00 55 1018.2
20260831135346 66 201 0.0 2.0 0.00 0.00 0.00 56 1018.2
20260831134841 66 257 0.0 2.0 0.00 0.00 0.00 57 1018.1
20260831134544 65 275 0.0 2.0 0.00 0.00 0.00 58 1017.6
20260831134343 65 250 0.0 2.0 0.00 0.00 0.00 59 1018.1
20260831133859 65 262 0.0 1.0 0.00 0.00 0.00 59 1018.0
20260831133339 65 262 0.0 1.0 0.00 0.00 0.00 59 1018.1
20260831133029 64 262 0.0 1.0 0.00 0.00 0.00 58 1017.7
20260831132915 65 262 0.0 1.0 0.00 0.00 0.00 58 1018.1
20260831132334 64 319 0.0 2.0 0.00 0.00 0.00 58 1018.1
20260831131852 64 319 0.0 2.0 0.00 0.00 0.00 57 1018.0
20260831131552 63 13 0.0 2.0 0.00 0.00 0.00 58 1017.5
20260831131350 64 257 0.0 1.0 0.00 0.00 0.00 58 1018.0
20260831130848 63 271 0.0 1.0 0.00 0.00 0.00 59 1018.0
20260831130342 63 265 0.0 2.0 0.00 0.00 0.00 59 1018.1
20260831130043 62 265 0.0 2.0 0.00 0.00 0.00 59 1017.6
20260831125839 62 242 0.0 2.0 0.00 0.00 0.00 60 1018.0
20260831125338 62 217 0.0 0.0 0.00 0.00 0.00 61 1017.9
20260831124856 62 217 0.0 0.0 0.00 0.00 0.00 60 1018.0
20260831124609 61 217 0.0 0.0 0.00 0.00 0.00 60 1017.5
20260831124355 61 217 0.0 0.0 0.00 0.00 0.00 60 1018.1
20260831123852 61 216 0.0 0.0 0.00 0.00 0.00 60 1018.1
20260831123352 61 277 0.0 0.0 0.00 0.00 0.00 60 1018.1
20260831123050 60 277 0.0 0.0 0.00 0.00 0.00 60 1017.6
20260831122849 61 277 0.0 0.0 0.00 0.00 0.00 59 1018.0
20260831122349 60 277 0.0 0.0 0.00 0.00 0.00 59 1018.0
20260831121848 60 277 0.0 0.0 0.00 0.00 0.00 58 1018.0
20260831121506 59 267 0.0 0.0 0.00 0.00 0.00 58 1017.5
20260831121404 60 267 0.0 0.0 0.00 0.00 0.00 58 1018.0
20260831120841 59 267 0.0 0.0 0.00 0.00 0.00 58 1017.9
20260831120340 59 267 0.0 0.0 0.00 0.00 0.00 58 1017.9
20260831120016 59 267 0.0 0.0 0.00 0.00 0.00 58 1017.4
20260831115915 59 267 0.0 0.0 0.00 0.00 0.00 58 1017.7
20260831115353 59 267 0.0 0.0 0.00 0.00 0.00 58 1017.7
20260831114851 59 267 0.0 0.0 0.00 0.00 0.00 57 1017.8
20260831114550 58 267 0.0 0.0 0.00 0.00 0.00 57 1017.3
20260831114349 58 267 0.0 0.0 0.00 0.00 0.00 56 1017.7
20260831113847 58 267 0.0 0.0 0.00 0.00 0.00 57 1017.6
20260831113347 57 267 0.0 0.0 0.00 0.00 0.00 57 1017.6
20260831113046 57 267 0.0 0.0 0.00 0.00 0.00 57 1017.1
20260831112844 57 267 0.0 0.0 0.00 0.00 0.00 57 1017.6
20260831112359 57 267 0.0 0.0 0.00 0.00 0.00 57 1017.6
20260831111852 57 267 0.0 0.0 0.00 0.00 0.00 57 1017.6
20260831111558 57 267 0.0 0.0 0.00 0.00 0.00 58 1017.0
20260831111353 57 267 0.0 0.0 0.00 0.00 0.00 58 1017.4
20260831110850 57 267 0.0 0.0 0.00 0.00 0.00 58 1017.5
20260831110348 57 267 0.0 0.0 0.00 0.00 0.00 59 1017.5
20260831110005 56 267 0.0 0.0 0.00 0.00 0.00 59 1017.0
20260831105904 57 267 0.0 0.0 0.00 0.00 0.00 59 1017.4
20260831105345 57 267 0.0 0.0 0.00 0.00 0.00 59 1017.3
20260831104842 57 267 0.0 0.0 0.00 0.00 0.00 59 1017.3
20260831104543 57 267 0.0 0.0 0.00 0.00 0.00 60 1016.8
20260831104341 57 267 0.0 0.0 0.00 0.00 0.00 60 1017.1
20260831103835 57 267 0.0 0.0 0.00 0.00 0.00 60 1017.1
20260831103351 57 267 0.0 0.0 0.00 0.00 0.00 61 1017.0
20260831103049 57 267 0.0 0.0 0.00 0.00 0.00 61 1016.6
20260831102847 57 267 0.0 0.0 0.00 0.00 0.00 61 1017.0
20260831102405 57 267 0.0 0.0 0.00 0.00 0.00 62 1016.9
20260831101839 58 267 0.0 0.0 0.00 0.00 0.00 63 1017.0
20260831101550 57 267 0.0 0.0 0.00 0.00 0.00 63 1016.6
20260831101340 58 267 0.0 0.0 0.00 0.00 0.00 63 1017.0
20260831100836 58 267 0.0 0.0 0.00 0.00 0.00 63 1017.0
20260831100416 58 267 0.0 0.0 0.00 0.00 0.00 62 1016.9
20260831100059 58 267 0.0 0.0 0.00 0.00 0.00 62 1016.4
20260831095850 58 267 0.0 0.0 0.00 0.00 0.00 62 1016.9
20260831095351 58 267 0.0 0.0 0.00 0.00 0.00 62 1016.9
20260831094843 59 267 0.0 0.0 0.00 0.00 0.00 62 1016.8
20260831094545 59 267 0.0 0.0 0.00 0.00 0.00 62 1016.2
20260831094344 59 266 0.0 0.0 0.00 0.00 0.00 61 1016.7
20260831093900 60 267 0.0 2.0 0.00 0.00 0.00 61 1016.7
20260831093339 60 290 1.0 2.0 0.00 0.00 0.00 61 1016.5
20260831093101 59 245 0.0 2.0 0.00 0.00 0.00 62 1016.1
20260831092859 59 223 1.0 2.0 0.00 0.00 0.00 62 1016.5
20260831092358 59 259 0.0 1.0 0.00 0.00 0.00 62 1016.4
20260831091854 59 257 0.0 1.0 0.00 0.00 0.00 62 1016.5
20260831091555 58 257 0.0 2.0 0.00 0.00 0.00 62 1016.1
20260831091354 59 272 0.0 2.0 0.00 0.00 0.00 62 1016.4
20260831090851 59 271 0.0 2.0 0.00 0.00 0.00 63 1016.4
20260831090405 59 244 0.0 2.0 0.00 0.00 0.00 63 1016.3
20260831085841 59 251 0.0 0.0 0.00 0.00 0.00 63 1016.2
20260831085340 59 340 0.0 0.0 0.00 0.00 0.00 63 1016.2
20260831084839 59 340 0.0 0.0 0.00 0.00 0.00 63 1016.1
20260831084541 59 340 0.0 0.0 0.00 0.00 0.00 63 1015.6
20260831084339 59 340 0.0 0.0 0.00 0.00 0.00 63 1016.1
20260831083835 59 340 0.0 0.0 0.00 0.00 0.00 63 1016.1
20260831083334 60 309 0.0 0.0 0.00 0.00 0.00 62 1016.1
20260831083054 59 309 0.0 0.0 0.00 0.00 0.00 62 1015.5
20260831082852 60 309 0.0 0.0 0.00 0.00 0.00 62 1016.1
20260831082350 60 247 0.0 0.0 0.00 0.00 0.00 62 1015.9
20260831081847 60 169 0.0 0.0 0.00 0.00 0.00 62 1016.0
20260831081550 60 240 0.0 0.0 0.00 0.00 0.00 62 1015.4
20260831081348 60 281 0.0 0.0 0.00 0.00 0.00 62 1016.0
20260831080841 60 86 0.0 0.0 0.00 0.00 0.00 63 1016.0
20260831080341 60 253 0.0 0.0 0.00 0.00 0.00 63 1016.0
20260831080038 60 214 0.0 0.0 0.00 0.00 0.00 63 1015.5
20260831075838 60 214 0.0 0.0 0.00 0.00 0.00 63 1016.0
20260831075339 61 214 0.0 0.0 0.00 0.00 0.00 64 1016.0
20260831074852 61 214 0.0 0.0 0.00 0.00 0.00 64 1015.9
20260831074512 60 214 0.0 0.0 0.00 0.00 0.00 64 1015.4
20260831074411 61 214 0.0 0.0 0.00 0.00 0.00 64 1015.9
20260831073907 61 214 0.0 0.0 0.00 0.00 0.00 64 1015.7
20260831073345 61 214 0.0 0.0 0.00 0.00 0.00 64 1015.7
20260831073044 60 214 0.0 0.0 0.00 0.00 0.00 64 1015.2
20260831072842 61 214 0.0 0.0 0.00 0.00 0.00 65 1015.6
20260831072358 61 214 0.0 1.0 0.00 0.00 0.00 66 1015.7
20260831071835 61 214 0.0 1.0 0.00 0.00 0.00 65 1015.7
20260831071536 61 214 0.0 1.0 0.00 0.00 0.00 65 1015.1
20260831071335 62 214 0.0 1.0 0.00 0.00 0.00 65 1015.7
20260831070904 62 214 0.0 1.0 0.00 0.00 0.00 64 1015.6
20260831070342 62 214 0.0 1.0 0.00 0.00 0.00 64 1015.6
20260831070042 62 214 0.0 1.0 0.00 0.00 0.00 64 1015.0
20260831065840 63 214 0.0 1.0 0.00 0.00 0.00 64 1015.5
20260831065339 63 214 0.0 1.0 0.00 0.00 0.00 64 1015.4
20260831064913 63 214 0.0 1.0 0.00 0.00 0.00 63 1015.4
20260831064509 63 214 0.0 2.0 0.00 0.00 0.00 62 1014.9
20260831064408 64 231 0.0 2.0 0.00 0.00 0.00 63 1015.4
20260831063855 64 293 0.0 2.0 0.00 0.00 0.00 63 1015.5
20260831063335 64 131 0.0 3.0 0.00 0.00 0.00 63 1015.5
20260831063050 64 321 0.0 3.0 0.00 0.00 0.00 62 1015.0
20260831062849 64 101 0.0 2.0 0.00 0.00 0.00 62 1015.5
20260831062347 64 236 0.0 3.0 0.00 0.00 0.00 62 1015.4
20260831061846 64 262 0.0 7.0 0.00 0.00 0.00 62 1015.4
20260831061507 64 15 0.0 7.0 0.00 0.00 0.00 63 1014.9
20260831061406 64 257 0.0 7.0 0.00 0.00 0.00 63 1015.4
20260831060838 64 39 0.0 3.0 0.00 0.00 0.00 64 1015.3
20260831060340 64 229 1.0 3.0 0.00 0.00 0.00 65 1015.3
20260831060106 63 230 0.0 2.0 0.00 0.00 0.00 65 1014.8
20260831055855 64 256 0.0 0.0 0.00 0.00 0.00 65 1015.4
20260831055335 64 232 0.0 0.0 0.00 0.00 0.00 65 1015.4
20260831054846 64 232 0.0 0.0 0.00 0.00 0.00 65 1015.4
20260831054513 63 232 0.0 1.0 0.00 0.00 0.00 66 1014.9
20260831054405 64 232 0.0 1.0 0.00 0.00 0.00 66 1015.4
20260831053841 64 231 0.0 1.0 0.00 0.00 0.00 66 1015.4
20260831053401 64 231 0.0 1.0 0.00 0.00 0.00 65 1015.4
20260831053035 64 231 0.0 0.0 0.00 0.00 0.00 65 1014.8
20260831052834 64 231 0.0 0.0 0.00 0.00 0.00 65 1015.2
20260831052354 64 231 0.0 1.0 0.00 0.00 0.00 65 1015.2
20260831051910 65 231 0.0 1.0 0.00 0.00 0.00 65 1015.2
20260831051559 64 231 0.0 1.0 0.00 0.00 0.00 65 1014.7
20260831051346 65 231 0.0 1.0 0.00 0.00 0.00 65 1015.2
20260831050843 65 231 0.0 1.0 0.00 0.00 0.00 65 1015.3
20260831050342 65 231 0.0 1.0 0.00 0.00 0.00 65 1015.3
20260831050040 65 231 0.0 1.0 0.00 0.00 0.00 64 1014.7
20260831045839 65 231 0.0 1.0 0.00 0.00 0.00 65 1015.3
20260831045339 65 255 0.0 1.0 0.00 0.00 0.00 64 1015.3
20260831044853 66 255 0.0 1.0 0.00 0.00 0.00 64 1015.2
20260831044554 66 255 0.0 1.0 0.00 0.00 0.00 64 1014.7
20260831044352 66 255 0.0 1.0 0.00 0.00 0.00 63 1015.1
20260831043850 66 271 0.0 2.0 0.00 0.00 0.00 63 1014.9
20260831043349 67 293 0.0 2.0 0.00 0.00 0.00 63 1015.0
20260831043049 66 290 0.0 2.0 0.00 0.00 0.00 63 1014.5
20260831042846 67 310 0.0 2.0 0.00 0.00 0.00 63 1014.8
20260831042345 67 245 0.0 1.0 0.00 0.00 0.00 62 1014.8
20260831041842 67 252 0.0 1.0 0.00 0.00 0.00 63 1014.7
20260831041540 67 204 0.0 1.0 0.00 0.00 0.00 62 1014.2
20260831041339 67 207 0.0 1.0 0.00 0.00 0.00 62 1014.8
20260831040835 68 223 0.0 1.0 0.00 0.00 0.00 62 1014.7
20260831040334 68 149 0.0 4.0 0.00 0.00 0.00 61 1014.6
20260831040009 67 304 0.0 4.0 0.00 0.00 0.00 61 1014.2
20260831035908 68 312 1.0 4.0 0.00 0.00 0.00 61 1014.8
20260831035347 68 249 0.0 1.0 0.00 0.00 0.00 61 1014.8
20260831034845 68 138 0.0 3.0 0.00 0.00 0.00 60 1014.8
20260831034507 68 110 0.0 3.0 0.00 0.00 0.00 60 1014.3
20260831034405 68 302 1.0 3.0 0.00 0.00 0.00 61 1014.7
20260831033841 68 155 0.0 2.0 0.00 0.00 0.00 61 1014.7
20260831033400 69 53 0.0 2.0 0.00 0.00 0.00 61 1014.8
20260831033053 68 52 0.0 2.0 0.00 0.00 0.00 61 1014.3
20260831032851 69 269 0.0 1.0 0.00 0.00 0.00 61 1014.9
20260831032410 69 262 0.0 1.0 0.00 0.00 0.00 61 1014.8
20260831031845 69 271 0.0 1.0 0.00 0.00 0.00 61 1014.8
20260831031547 69 233 0.0 1.0 0.00 0.00 0.00 61 1014.4
20260831031344 69 233 0.0 1.0 0.00 0.00 0.00 61 1014.9
20260831030903 69 242 0.0 1.0 0.00 0.00 0.00 61 1015.0
20260831030341 70 241 0.0 1.0 0.00 0.00 0.00 61 1014.8
20260831030047 69 243 0.0 2.0 0.00 0.00 0.00 61 1014.6
20260831025840 70 243 0.0 2.0 0.00 0.00 0.00 59 1015.0
20260831025340 70 58 0.0 2.0 0.00 0.00 0.00 59 1014.9
20260831024849 71 150 0.0 3.0 0.00 0.00 0.00 59 1014.8
20260831024616 70 172 0.0 3.0 0.00 0.00 0.00 58 1014.4
20260831023848 71 108 1.0 4.0 0.00 0.00 0.00 58 1014.5
20260831023345 71 165 1.0 5.0 0.00 0.00 0.00 57 1014.5
20260831023043 71 259 1.0 5.0 0.00 0.00 0.00 57 1014.0
20260831022841 71 131 1.0 5.0 0.00 0.00 0.00 58 1014.3
20260831022340 71 96 1.0 5.0 0.00 0.00 0.00 58 1014.4
20260831021838 72 306 1.0 6.0 0.00 0.00 0.00 57 1014.5
20260831021539 71 255 1.0 6.0 0.00 0.00 0.00 57 1014.1
20260831021337 72 267 1.0 6.0 0.00 0.00 0.00 56 1014.6
20260831020347 72 256 1.0 6.0 0.00 0.00 0.00 56 1014.5
20260831020005 71 324 1.0 6.0 0.00 0.00 0.00 56 1014.1
20260831015904 72 310 3.0 6.0 0.00 0.00 0.00 56 1014.6
20260831015338 72 252 1.0 5.0 0.00 0.00 0.00 56 1014.7
20260831014836 72 240 1.0 4.0 0.00 0.00 0.00 56 1014.6
20260831014540 72 266 1.0 6.0 0.00 0.00 0.00 56 1014.2
20260831014337 72 316 1.0 6.0 0.00 0.00 0.00 56 1014.6
20260831013853 72 14 2.0 6.0 0.00 0.00 0.00 56 1014.5
20260831013353 72 53 2.0 5.0 0.00 0.00 0.00 57 1014.6
20260831013109 71 286 0.0 5.0 0.00 0.00 0.00 57 1014.1
20260831012849 72 328 1.0 5.0 0.00 0.00 0.00 57 1014.4
20260831012348 72 328 0.0 2.0 0.00 0.00 0.00 58 1014.4
20260831011846 72 114 0.0 2.0 0.00 0.00 0.00 58 1014.3
20260831011546 71 193 0.0 4.0 0.00 0.00 0.00 57 1014.0
20260831011344 72 262 0.0 4.0 0.00 0.00 0.00 58 1014.4
20260831010843 72 273 1.0 4.0 0.00 0.00 0.00 58 1014.4
20260831010342 72 270 0.0 3.0 0.00 0.00 0.00 58 1014.1
20260831010041 72 248 0.0 4.0 0.00 0.00 0.00 57 1013.6
20260831005839 72 238 0.0 4.0 0.00 0.00 0.00 58 1014.2
20260831005354 72 295 0.0 3.0 0.00 0.00 0.00 58 1014.0
20260831004848 72 126 0.0 2.0 0.00 0.00 0.00 58 1014.0
20260831004549 72 75 0.0 3.0 0.00 0.00 0.00 58 1013.5
20260831004347 72 73 1.0 3.0 0.00 0.00 0.00 58 1014.0
20260831003845 72 257 1.0 3.0 0.00 0.00 0.00 58 1013.9
20260831003344 72 214 0.0 1.0 0.00 0.00 0.00 58 1013.8
20260831003043 72 232 0.0 1.0 0.00 0.00 0.00 58 1013.3
20260831002842 72 232 0.0 1.0 0.00 0.00 0.00 58 1013.7
20260831002341 72 235 0.0 2.0 0.00 0.00 0.00 57 1013.7
20260831001839 72 176 0.0 2.0 0.00 0.00 0.00 57 1013.7
20260831001539 72 210 0.0 2.0 0.00 0.00 0.00 57 1013.1
20260831001338 72 240 0.0 2.0 0.00 0.00 0.00 57 1013.6
20260831000834 72 181 0.0 1.0 0.00 0.00 0.00 57 1013.5
20260831000355 72 265 0.0 1.0 0.00 0.00 0.00 57 1013.4
20260831000049 72 265 0.0 1.0 0.00 0.00 0.00 57 1012.9
20260830235848 73 265 1.0 2.0 0.00 0.00 0.00 56 1013.3
20260830235347 73 242 0.0 3.0 0.00 0.00 0.00 56 1013.4
20260830234843 73 328 0.0 3.0 0.00 0.00 0.00 56 1013.3
20260830234543 72 322 0.0 3.0 0.00 0.00 0.00 56 1012.8
20260830234342 73 160 0.0 3.0 0.00 0.00 0.00 56 1013.3
20260830233859 73 331 0.0 3.0 0.00 0.00 0.00 56 1013.3
20260830233418 73 179 0.0 3.0 0.00 0.00 0.00 56 1013.3
20260830233013 72 264 0.0 3.0 0.00 0.00 0.00 56 1012.8
20260830232911 73 266 0.0 3.0 0.00 0.00 0.00 56 1013.3
20260830231835 73 241 0.0 2.0 0.00 0.00 0.00 55 1013.2
20260830231553 73 254 0.0 4.0 0.00 0.00 0.00 55 1012.8
20260830231352 73 272 0.0 4.0 0.00 0.00 0.00 55 1013.2
20260830230848 73 267 1.0 4.0 0.00 0.00 0.00 55 1013.3
20260830230405 73 276 0.0 4.0 0.00 0.00 0.00 55 1013.3
20260830230042 73 246 0.0 4.0 0.00 0.00 0.00 55 1012.8
20260830225840 74 202 0.0 3.0 0.00 0.00 0.00 54 1013.3
20260830225340 74 245 0.0 1.0 0.00 0.00 0.00 54 1013.3
20260830224838 74 212 0.0 2.0 0.00 0.00 0.00 54 1013.4
20260830224543 74 212 0.0 2.0 0.00 0.00 0.00 54 1012.9
20260830224339 74 212 0.0 2.0 0.00 0.00 0.00 53 1013.5
20260830223856 74 242 0.0 2.0 0.00 0.00 0.00 53 1013.5
20260830223354 74 252 0.0 2.0 0.00 0.00 0.00 52 1013.6
20260830223053 74 23 0.0 2.0 0.00 0.00 0.00 52 1013.0
20260830222849 75 270 0.0 3.0 0.00 0.00 0.00 52 1013.7
20260830222407 75 257 0.0 4.0 0.00 0.00 0.00 52 1013.7
20260830221843 75 248 1.0 4.0 0.00 0.00 0.00 51 1013.7
20260830221547 74 117 0.0 3.0 0.00 0.00 0.00 51 1013.2
20260830221342 75 326 0.0 3.0 0.00 0.00 0.00 51 1013.7
20260830220840 75 27 1.0 5.0 0.00 0.00 0.00 51 1013.7
20260830220340 75 228 1.0 5.0 0.00 0.00 0.00 51 1013.6
20260830220038 75 207 1.0 4.0 0.00 0.00 0.00 51 1013.2
20260830215837 75 137 0.0 3.0 0.00 0.00 0.00 51 1013.7
20260830215338 75 297 1.0 3.0 0.00 0.00 0.00 51 1013.7
20260830214834 76 255 1.0 3.0 0.00 0.00 0.00 50 1013.6
20260830214555 75 206 0.0 3.0 0.00 0.00 0.00 52 1013.1
20260830214354 76 206 1.0 3.0 0.00 0.00 0.00 51 1013.6
20260830213850 76 225 0.0 3.0 0.00 0.00 0.00 50 1013.6
20260830213349 77 68 0.0 1.0 0.00 0.00 0.00 50 1013.5
20260830213043 76 74 0.0 2.0 0.00 0.00 0.00 50 1013.1
20260830212842 77 75 0.0 2.0 0.00 0.00 0.00 49 1013.6
20260830212342 77 290 1.0 2.0 0.00 0.00 0.00 48 1013.5
20260830211840 78 125 0.0 2.0 0.00 0.00 0.00 48 1013.6
20260830211542 77 125 0.0 5.0 0.00 0.00 0.00 46 1013.3
20260830211340 78 276 0.0 5.0 0.00 0.00 0.00 46 1013.7
20260830210835 79 271 2.0 7.0 0.00 0.00 0.00 44 1013.8